Location: Muenchen
(48.1800°N, 11.5800°E)
Time: 23:28:45
(UTC+02:00)

Iridium 36 - Visible Passes

Search period start: 02 July 2015 00:00
Search period end: 12 July 2015 00:00
Orbit: 772 x 775 km, 86.4° (Epoch: 02 July)

Date Brightness Start Highest point End Pass type
(mag) Time Alt. Az. Time Alt. Az. Time Alt. Az.
02 Jul 5.5 00:03:58 25° S 00:07:02 82° W 00:12:16 10° N visible
02 Jul 7.9 01:46:25 10° W 01:48:42 12° WNW 01:50:43 10° NW visible
02 Jul 5.7 23:29:14 23° SSE 23:32:21 57° E 23:37:29 10° N visible
03 Jul 7.5 01:09:37 10° WSW 01:13:29 21° WNW 01:17:22 10° NNW visible
03 Jul 6.5 22:54:29 16° SE 22:57:49 32° E 23:02:26 10° NNE visible
04 Jul 6.7 00:34:51 16° SW 00:38:27 36° WNW 00:43:13 10° NNW visible
04 Jul 7.1 22:19:54 10° ESE 22:23:23 19° ENE 22:27:01 10° NE visible
05 Jul 5.8 00:00:06 21° SSW 00:03:34 63° W 00:08:45 10° N visible
05 Jul 5.5 23:25:20 21° S 23:28:51 74° E 23:34:04 10° N visible
06 Jul 7.8 01:06:49 10° WSW 01:10:12 17° WNW 01:13:25 10° NNW visible
06 Jul 6.1 22:50:33 16° SSE 22:54:15 41° E 22:59:08 10° NNE visible
07 Jul 7.1 00:30:55 11° SW 00:35:05 28° WNW 00:39:31 10° NNW visible
07 Jul 6.8 22:15:45 10° SE 22:19:45 24° E 22:23:55 10° NNE visible
07 Jul 6.2 23:56:07 16° SSW 00:00:08 49° W 00:05:12 10° N visible
08 Jul 5.5 23:21:19 17° S 23:25:21 86° W 23:30:36 10° N visible
09 Jul 8.0 01:04:28 10° W 01:06:58 13° WNW 01:09:13 10° NW visible
09 Jul 5.8 22:46:29 15° SSE 22:50:42 54° E 22:55:47 10° NNE visible
10 Jul 7.5 00:27:42 10° SW 00:31:46 22° WNW 00:35:45 10° NNW visible
10 Jul 6.5 22:11:42 10° SE 22:16:09 31° E 22:20:43 10° NNE visible
10 Jul 6.7 23:52:02 11° SW 23:56:45 38° WNW 00:01:35 10° N visible
11 Jul 5.8 23:17:10 12° SSW 23:21:54 67° W 23:27:06 10° N visible
